2024-247K

Last updated on Fri Jan 17 2025 00:02:04 GMT+0000 (Coordinated Universal Time)

1 62386U 24247K 25016.58390526 .00006983 00000+0 34526-3 0 9994 2 62386 44.9933 220.4251 0003703 243.3479 116.7021 15.18495738 4115
UTC large
Height (km)
Speed (km/s)
/
Latitude / Longitude
Inclination (degrees)
Orbital Period (minutes)
Azimuth
Elevation
Range (km)
Doppler Factor

Next 0 passes for location: London (51.5072 / 0.1276)

Sorry there are no passes over London.